DELTA 1 DEB, 10748

Orbit data source: Space-Track

DELTA 1 DEB, 10748 is space debris in SSO originally from a launch on Thu, 29 Jul 1976 UTC launched from the Air Force Western Test Range (AFWTR). Debris objects in space refer to the collection of defunct objects orbiting the Earth. Examples of debris include non-operational satellites, rocket bodies, and fragments generated from explosions, collisions, or faulty payload assembly.

Loading next visibility...
Identifier
10748, 1976-077AV
Orbit
SSO
Country
Flag of USUS
Related business
Manufacturer
Unknown
Mission
Spacecraft
Bus & Motor
Unknown
Mass
Unknown
Launch date (UTC)
1976-07-29 (50 years ago)
Launch vehicle
Unknown
Launch site
Air Force Western Test Range (AFWTR)
Object type
Payload
Rocket body
Debris
Shape & HBR
Unknown shape, 0.2 m
Radar Cross Section
Small (<0.1 m²)

Expand to show TLE details & history
Last TLE update: 13 hours ago

TLE from 13 hours ago
0 DELTA 1 DEB
1 10748U 76077AV  26105.94553171 -.00000054  00000-0 -67687-4 0  9995
2 10748 102.4838  90.7307 0073157 199.7279 221.4398 12.29753382231064
Epoch: 2026-04-15T22:41Z
TLE epoch observation values (Epoch: 2026-04-15T22:41:33.939Z)
Latitude
58.3857°
Longitude
-114.73456°
Altitude
1,603.642 km
Speed
7.054 km/s
True Right ascension
04h 39m 01s
True Declination
58° 14' 54"
Sunlit
Object was in daylight at epoch
Visualization orbit readout
Latitude
Unknown
Longitude
Unknown
Altitude
Unknown
Speed
Unknown
Apparent Right ascension
Unknown
Apparent Declination
Unknown
Sunlit
N/A
Visualization observer readout
Local Sidereal Time
18:10:51
Azimuth
Unknown
Elevation
Unknown
Doppler factor
Unknown
Orbital elements
Apogee altitude
1,605.943 km
Perigee altitude
1,489.973 km
Semi-major axis
7,926.095 km
Eccentricity
0.00732
Inclination
102.4838°
RAAN
90.7307°
Arg. of periapsis
199.7279°
True anomaly
220.88876°
Mean anomaly
221.4398°
Eccentric anomaly
221.1639°
Mean motion
3.07577 °/min
Orbital period
117.04 mins
BSTAR
-0.000067687
Loading maneuver chart data...
Computing Atmospheric mass density...
Loading historical data...
Loading historical data...
Loading historical data...
Loading historical data...
Loading historical data...
Loading historical data...
Loading historical data...

Documentation

Showing up to 5 results
|